,,Stat6,,Stat2,,Stat8,,Stat9,,Stat10,,Wind1,,Wind1,
time,status,PA1M_AVG,status,PR1M_SUM,status,RH1M_AVG,status,SR1M_AVG,status,TA1M_AVG,status,W1dAve1m,status,W1sAve1m,
2009-07-24, 00:00:01,VALID,919.662,VALID,0,VALID,100,VALID,-0.0339617,VALID,18.5875,VALID,9,VALID,0.768555,
2009-07-24, 00:01:01,VALID,919.662,VALID,0,VALID,100,VALID,-0.0339617,VALID,18.5711,VALID,8,VALID,0.421503,
2009-07-24, 00:02:01,VALID,919.638,VALID,0,VALID,100,VALID,-0.0509425,VALID,18.5653,VALID,8,VALID,0.0763889,
2009-07-24, 00:03:00,VALID,919.635,VALID,0,VALID,100,VALID,-0.0169808,VALID,18.5873,VALID,23,VALID,0,
2009-07-24, 00:04:00,VALID,919.629,VALID,0,VALID,100,VALID,-0.0509425,VALID,18.6202,VALID,23,VALID,0,
2009-07-24, 00:05:01,VALID,919.625,VALID,0,VALID,100,VALID,-0.0509425,VALID,18.6367,VALID,10,VALID,0,
2009-07-24, 00:06:00,VALID,919.626,VALID,0,VALID,100,VALID,-0.101885,VALID,18.6232,VALID,10,VALID,0,
2009-07-24, 00:07:00,VALID,919.586,VALID,0,VALID,100,VALID,-0.0339617,VALID,18.6197,VALID,323,VALID,0.192773,
2009-07-24, 00:08:01,VALID,919.571,VALID,0,VALID,100,VALID,-0.0679233,VALID,18.6524,VALID,297,VALID,0.607244,
2009-07-24, 00:09:00,VALID,919.568,VALID,0,VALID,100,VALID,-0.0849042,VALID,18.6883,VALID,319,VALID,0.544271,
2009-07-24, 00:10:00,VALID,919.564,VALID,0,VALID,100,VALID,-0.0849042,VALID,18.6886,VALID,354,VALID,0.699219,
2009-07-24, 00:11:01,VALID,919.567,VALID,0,VALID,100,VALID,-0.0849042,VALID,18.7015,VALID,41,VALID,0.98165,
2009-07-24, 00:12:00,VALID,919.617,VALID,0,VALID,100,VALID,0.0509425,VALID,18.7129,VALID,22,VALID,1.00604,
2009-07-24, 00:13:01,VALID,919.65,VALID,0,VALID,100,VALID,0.0169808,VALID,18.7261,VALID,23,VALID,0.83418,
2009-07-24, 00:14:00,VALID,919.678,VALID,0,VALID,100,VALID,0,VALID,18.6894,VALID,29,VALID,1.17315,
2009-07-24, 00:15:00,VALID,919.704,VALID,0,VALID,100,VALID,0,VALID,18.6964,VALID,25,VALID,1.71307,
2009-07-24, 00:16:00,VALID,919.712,VALID,0,VALID,100,VALID,0.0169808,VALID,18.6969,VALID,29,VALID,1.87649,
2009-07-24, 00:17:01,VALID,919.739,VALID,0,VALID,100,VALID,0.0169808,VALID,18.7194,VALID,18,VALID,1.46763,
2009-07-24, 00:18:00,VALID,919.721,VALID,0,VALID,100,VALID,0.0169808,VALID,18.7293,VALID,15,VALID,1.56468,
2009-07-24, 00:19:00,VALID,919.682,VALID,0,VALID,100,VALID,-0.0339617,VALID,18.7191,VALID,16,VALID,2.07813,
2009-07-24, 00:20:00,VALID,919.652,VALID,0,VALID,100,VALID,0,VALID,18.7198,VALID,12,VALID,1.56977,
2009-07-24, 00:21:00,VALID,919.633,VALID,0,VALID,100,VALID,0.0169808,VALID,18.7099,VALID,13,VALID,1.35901,
2009-07-24, 00:22:00,VALID,919.582,VALID,0,VALID,100,VALID,0,VALID,18.7066,VALID,4,VALID,1.2589,
2009-07-24, 00:23:00,VALID,919.547,VALID,0,VALID,100,VALID,0,VALID,18.6969,VALID,12,VALID,1.01012,
2009-07-24, 00:24:00,VALID,919.49,VALID,0,VALID,100,VALID,0,VALID,18.6709,VALID,13,VALID,1.24237,
2009-07-24, 00:25:00,VALID,919.43,VALID,0,VALID,100,VALID,-0.0169808,VALID,18.6647,VALID,23,VALID,1.38337,
2009-07-24, 00:26:00,VALID,919.391,VALID,0,VALID,100,VALID,-0.0169808,VALID,18.6447,VALID,7,VALID,1.3853,
2009-07-24, 00:27:00,VALID,919.361,VALID,0,VALID,100,VALID,-0.0849042,VALID,18.6397,VALID,11,VALID,1.11889,
2009-07-24, 00:28:00,VALID,919.328,VALID,0,VALID,100,VALID,-0.0849042,VALID,18.6269,VALID,11,VALID,1.06267,
2009-07-24, 00:29:00,VALID,919.31,VALID,0,VALID,100,VALID,-0.0679233,VALID,18.6202,VALID,355,VALID,0.792969,
2009-07-24, 00:30:01,VALID,919.305,VALID,0,VALID,100,VALID,-0.101885,VALID,18.6204,VALID,19,VALID,0.766335,
2009-07-24, 00:31:00,VALID,919.293,VALID,0,VALID,100,VALID,-0.118866,VALID,18.6172,VALID,21,VALID,0.748512,
2009-07-24, 00:32:01,VALID,919.293,VALID,0,VALID,100,VALID,-0.101885,VALID,18.6172,VALID,18,VALID,0.631624,
2009-07-24, 00:33:01,VALID,919.288,VALID,0,VALID,100,VALID,-0.101885,VALID,18.6334,VALID,17,VALID,0.462984,
2009-07-24, 00:34:01,VALID,919.293,VALID,0,VALID,100,VALID,-0.101885,VALID,18.6302,VALID,11,VALID,0.319949,
2009-07-24, 00:35:01,VALID,919.286,VALID,0,VALID,100,VALID,-0.101885,VALID,18.6207,VALID,356,VALID,0.572181,
2009-07-24, 00:36:01,VALID,919.273,VALID,0,VALID,100,VALID,-0.101885,VALID,18.5975,VALID,344,VALID,0.338224,
2009-07-24, 00:37:00,VALID,919.262,VALID,0,VALID,100,VALID,-0.101885,VALID,18.5945,VALID,341,VALID,0.61452,
2009-07-24, 00:38:01,VALID,919.258,VALID,0,VALID,100,VALID,-0.0849042,VALID,18.588,VALID,340,VALID,0.223214,
2009-07-24, 00:39:01,VALID,919.253,VALID,0,VALID,100,VALID,-0.118866,VALID,18.5845,VALID,3,VALID,0.515807,
2009-07-24, 00:40:01,VALID,919.243,VALID,0,VALID,100,VALID,-0.0849042,VALID,18.5778,VALID,19,VALID,1.43242,
2009-07-24, 00:41:01,VALID,919.218,VALID,0,VALID,100,VALID,-0.101885,VALID,18.575,VALID,5,VALID,1.62786,
2009-07-24, 00:42:00,VALID,919.211,VALID,0,VALID,100,VALID,-0.0509425,VALID,18.6098,VALID,3,VALID,1.30126,
2009-07-24, 00:43:01,VALID,919.195,VALID,0,VALID,100,VALID,0.0339617,VALID,18.6061,VALID,3,VALID,1.58708,
2009-07-24, 00:44:01,VALID,919.204,VALID,0,VALID,100,VALID,-0.0339617,VALID,18.6061,VALID,5,VALID,1.42878,
2009-07-24, 00:45:01,VALID,919.215,VALID,0,VALID,100,VALID,0,VALID,18.6125,VALID,352,VALID,1.0901,
2009-07-24, 00:46:01,VALID,919.233,VALID,0,VALID,100,VALID,-0.0169808,VALID,18.5961,VALID,2,VALID,1.6008,
2009-07-24, 00:47:01,VALID,919.246,VALID,0,VALID,100,VALID,0,VALID,18.5933,VALID,335,VALID,1.02834,
2009-07-24, 00:48:01,VALID,919.253,VALID,0,VALID,100,VALID,0,VALID,18.5963,VALID,13,VALID,0.707209,
2009-07-24, 00:49:00,VALID,919.238,VALID,0,VALID,100,VALID,0.0169808,VALID,18.5898,VALID,6,VALID,1.69749,
2009-07-24, 00:50:00,VALID,919.234,VALID,0,VALID,100,VALID,0.0339617,VALID,18.5864,VALID,14,VALID,1.15569,
2009-07-24, 00:51:00,VALID,919.235,VALID,0,VALID,100,VALID,0,VALID,18.6061,VALID,2,VALID,0.84561,
2009-07-24, 00:52:00,VALID,919.224,VALID,0,VALID,100,VALID,0,VALID,18.6063,VALID,347,VALID,1.02889,
2009-07-24, 00:53:00,VALID,919.219,VALID,0,VALID,100,VALID,0,VALID,18.5898,VALID,309,VALID,0.90608,
2009-07-24, 00:54:00,VALID,919.219,VALID,0,VALID,100,VALID,0,VALID,18.5834,VALID,2,VALID,1.12176,
2009-07-24, 00:55:00,VALID,919.229,VALID,0,VALID,100,VALID,-0.0339617,VALID,18.5544,VALID,21,VALID,1.29297,
2009-07-24, 00:56:00,VALID,919.232,VALID,0,VALID,100,VALID,-0.0339617,VALID,18.5315,VALID,22,VALID,1.36426,
2009-07-24, 00:57:00,VALID,919.248,VALID,0,VALID,100,VALID,-0.0169808,VALID,18.5412,VALID,6,VALID,1.01353,
2009-07-24, 00:58:00,VALID,919.254,VALID,0,VALID,100,VALID,0,VALID,18.5477,VALID,6,VALID,0.922991,
2009-07-24, 00:59:00,VALID,919.255,VALID,0,VALID,100,VALID,0,VALID,18.5771,VALID,352,VALID,1.14367,
2009-07-24, 01:00:00,VALID,919.245,VALID,0,VALID,100,VALID,-0.0169808,VALID,18.5801,VALID,4,VALID,0.828819,
2009-07-24, 01:01:00,VALID,919.232,VALID,0,VALID,100,VALID,0,VALID,18.5796,VALID,10,VALID,1.26172,
2009-07-24, 01:02:00,VALID,919.212,VALID,0,VALID,100,VALID,0,VALID,18.5831,VALID,2,VALID,1.32336,
2009-07-24, 01:03:00,VALID,919.202,VALID,0,VALID,100,VALID,0,VALID,18.6026,VALID,1,VALID,1.12188,
2009-07-24, 01:04:00,VALID,919.191,VALID,0,VALID,100,VALID,0.0169808,VALID,18.6288,VALID,353,VALID,1.04323,
2009-07-24, 01:05:00,VALID,919.162,VALID,0,VALID,100,VALID,0.0169808,VALID,18.6283,VALID,355,VALID,1.39045,
2009-07-24, 01:06:00,VALID,919.12,VALID,0,VALID,100,VALID,0.0339617,VALID,18.638,VALID,350,VALID,1.1149,
2009-07-24, 01:07:00,VALID,919.093,VALID,0,VALID,100,VALID,0.0509425,VALID,18.6545,VALID,360,VALID,0.921528,
2009-07-24, 01:08:00,VALID,919.071,VALID,0,VALID,100,VALID,0.0169808,VALID,18.6542,VALID,346,VALID,0.963118,
2009-07-24, 01:09:00,VALID,919.05,VALID,0,VALID,100,VALID,0,VALID,18.6545,VALID,352,VALID,0.911133,
2009-07-24, 01:10:00,VALID,919.035,VALID,0,VALID,100,VALID,0.0169808,VALID,18.6515,VALID,345,VALID,0.991406,
2009-07-24, 01:11:00,VALID,919.029,VALID,0,VALID,100,VALID,0.0339617,VALID,18.6575,VALID,335,VALID,0.486111,
2009-07-24, 01:12:00,VALID,919.008,VALID,0,VALID,100,VALID,-0.0679233,VALID,18.6489,VALID,335,VALID,0.181286,
2009-07-24, 01:13:00,VALID,918.998,VALID,0,VALID,100,VALID,-0.0849042,VALID,18.6462,VALID,335,VALID,0,
2009-07-24, 01:14:00,VALID,918.977,VALID,0,VALID,100,VALID,-0.0849042,VALID,18.6561,VALID,335,VALID,0,
2009-07-24, 01:15:00,VALID,918.964,VALID,0,VALID,100,VALID,-0.101885,VALID,18.6624,VALID,335,VALID,0,
2009-07-24, 01:16:00,VALID,918.961,VALID,0,VALID,100,VALID,-0.101885,VALID,18.6591,VALID,335,VALID,0,
2009-07-24, 01:17:00,VALID,918.94,VALID,0,VALID,100,VALID,-0.101885,VALID,18.6434,VALID,332,VALID,0.546512,
2009-07-24, 01:18:00,VALID,918.94,VALID,0,VALID,100,VALID,-0.118866,VALID,18.6272,VALID,338,VALID,0.563045,
2009-07-24, 01:19:00,VALID,918.927,VALID,0,VALID,100,VALID,-0.0849042,VALID,18.623,VALID,337,VALID,0.529576,
2009-07-24, 01:20:00,VALID,918.912,VALID,0,VALID,100,VALID,-0.0849042,VALID,18.617,VALID,342,VALID,0.634527,
2009-07-24, 01:21:00,VALID,918.888,VALID,0,VALID,100,VALID,-0.118866,VALID,18.6012,VALID,358,VALID,0.76598,
2009-07-24, 01:22:00,VALID,918.874,VALID,0,VALID,100,VALID,-0.135847,VALID,18.5947,VALID,360,VALID,0.705966,
2009-07-24, 01:23:00,VALID,918.845,VALID,0,VALID,100,VALID,-0.101885,VALID,18.598,VALID,359,VALID,0.505664,
2009-07-24, 01:24:00,VALID,918.827,VALID,0,VALID,100,VALID,-0.101885,VALID,18.6042,VALID,359,VALID,0.377232,
2009-07-24, 01:25:00,VALID,918.792,VALID,0,VALID,100,VALID,-0.101885,VALID,18.6075,VALID,359,VALID,0.00948661,
2009-07-24, 01:26:00,VALID,918.767,VALID,0,VALID,100,VALID,-0.101885,VALID,18.5977,VALID,359,VALID,0,
2009-07-24, 01:27:00,VALID,918.725,VALID,0,VALID,100,VALID,-0.0339617,VALID,18.6,VALID,359,VALID,0,
2009-07-24, 01:28:00,VALID,918.693,VALID,0,VALID,100,VALID,-0.0169808,VALID,18.5996,VALID,359,VALID,0,
2009-07-24, 01:29:00,VALID,918.648,VALID,0,VALID,100,VALID,-0.0169808,VALID,18.5866,VALID,4,VALID,0.146984,
2009-07-24, 01:30:00,VALID,918.631,VALID,0,VALID,100,VALID,-0.0169808,VALID,18.5701,VALID,24,VALID,0.837754,
2009-07-24, 01:31:00,VALID,918.618,VALID,0,VALID,100,VALID,-0.0169808,VALID,18.5542,VALID,14,VALID,0.923264,
2009-07-24, 01:32:00,VALID,918.606,VALID,0,VALID,100,VALID,-0.0169808,VALID,18.5282,VALID,8,VALID,0.921148,
2009-07-24, 01:33:00,VALID,918.611,VALID,0,VALID,100,VALID,-0.0169808,VALID,18.5421,VALID,5,VALID,0.782965,
2009-07-24, 01:34:00,VALID,918.598,VALID,0,VALID,100,VALID,-0.0169808,VALID,18.5252,VALID,350,VALID,0.82984,
2009-07-24, 01:35:00,VALID,918.587,VALID,0,VALID,100,VALID,-0.0509425,VALID,18.5282,VALID,355,VALID,0.517756,
2009-07-24, 01:36:00,VALID,918.559,VALID,0,VALID,100,VALID,0,VALID,18.5412,VALID,354,VALID,0.46968,
2009-07-24, 01:37:00,VALID,918.548,VALID,0,VALID,100,VALID,0.0169808,VALID,18.5023,VALID,354,VALID,0.598656,
2009-07-24, 01:38:00,VALID,918.53,VALID,0,VALID,100,VALID,-0.0169808,VALID,18.4925,VALID,354,VALID,0.634233,
2009-07-24, 01:39:00,VALID,918.515,VALID,0,VALID,100,VALID,-0.0169808,VALID,18.4895,VALID,354,VALID,0.484766,
2009-07-24, 01:40:00,VALID,918.511,VALID,0,VALID,100,VALID,0,VALID,18.4731,VALID,354,VALID,0.449505,
2009-07-24, 01:41:00,VALID,918.508,VALID,0,VALID,100,VALID,-0.0169808,VALID,18.4868,VALID,358,VALID,0.792039,
2009-07-24, 01:42:00,VALID,918.509,VALID,0,VALID,100,VALID,0,VALID,18.506,VALID,8,VALID,0.828711,
2009-07-24, 01:43:00,VALID,918.505,VALID,0,VALID,100,VALID,0.0169808,VALID,18.5152,VALID,17,VALID,0.695494,
2009-07-24, 01:44:00,VALID,918.518,VALID,0,VALID,100,VALID,-0.0169808,VALID,18.5319,VALID,18,VALID,0.490767,
2009-07-24, 01:45:00,VALID,918.524,VALID,0,VALID,100,VALID,-0.0169808,VALID,18.5349,VALID,360,VALID,0.859549,
2009-07-24, 01:46:00,VALID,918.541,VALID,0,VALID,100,VALID,0,VALID,18.5576,VALID,16,VALID,0.853423,
2009-07-24, 01:47:00,VALID,918.539,VALID,0,VALID,100,VALID,-0.0169808,VALID,18.597,VALID,31,VALID,0.703311,
2009-07-24, 01:48:00,VALID,918.54,VALID,0,VALID,100,VALID,0,VALID,18.6355,VALID,8,VALID,0.483803,
2009-07-24, 01:49:00,VALID,918.539,VALID,0,VALID,100,VALID,0,VALID,18.6709,VALID,2,VALID,0.286204,
2009-07-24, 01:50:00,VALID,918.566,VALID,0,VALID,100,VALID,0,VALID,18.6911,VALID,2,VALID,0.0607422,
2009-07-24, 01:51:00,VALID,918.582,VALID,0,VALID,100,VALID,0,VALID,18.6974,VALID,2,VALID,0.321987,
2009-07-24, 01:52:00,VALID,918.604,VALID,0,VALID,100,VALID,-0.0169808,VALID,18.7133,VALID,2,VALID,0,
2009-07-24, 01:53:00,VALID,918.626,VALID,0,VALID,100,VALID,-0.0169808,VALID,18.736,VALID,7,VALID,0.18378,
2009-07-24, 01:54:00,VALID,918.643,VALID,0,VALID,100,VALID,0.0169808,VALID,18.7557,VALID,7,VALID,1.52486,
2009-07-24, 01:55:00,VALID,918.656,VALID,0,VALID,100,VALID,0,VALID,18.7947,VALID,1,VALID,1.19234,
2009-07-24, 01:56:00,VALID,918.636,VALID,0,VALID,100,VALID,-0.0169808,VALID,18.8276,VALID,6,VALID,0.738467,
2009-07-24, 01:57:00,VALID,918.612,VALID,0,VALID,100,VALID,0,VALID,18.8271,VALID,359,VALID,1.10472,
2009-07-24, 01:58:00,VALID,918.606,VALID,0,VALID,100,VALID,-0.0169808,VALID,18.8334,VALID,15,VALID,0.526163,
2009-07-24, 01:59:00,VALID,918.58,VALID,0,VALID,100,VALID,-0.0169808,VALID,18.8398,VALID,15,VALID,0.160792,
2009-07-24, 02:00:00,VALID,918.556,VALID,0,VALID,100,VALID,0,VALID,18.8201,VALID,15,VALID,0.679129,
2009-07-24, 02:01:00,VALID,918.524,VALID,0,VALID,100,VALID,-0.0339617,VALID,18.8042,VALID,347,VALID,1.10851,
2009-07-24, 02:02:00,VALID,918.503,VALID,0,VALID,100,VALID,0,VALID,18.8209,VALID,326,VALID,0.637463,
2009-07-24, 02:03:00,VALID,918.518,VALID,0,VALID,100,VALID,-0.0339617,VALID,18.8396,VALID,329,VALID,0.405134,
2009-07-24, 02:04:00,VALID,918.516,VALID,0,VALID,100,VALID,-0.0169808,VALID,18.8758,VALID,329,VALID,0.163881,
2009-07-24, 02:05:00,VALID,918.502,VALID,0,VALID,100,VALID,0,VALID,18.8887,VALID,337,VALID,0.0563616,
2009-07-24, 02:06:00,VALID,918.494,VALID,0,VALID,99.9977,VALID,-0.0169808,VALID,18.8493,VALID,14,VALID,0.554688,
2009-07-24, 02:07:00,VALID,918.489,VALID,0,VALID,100,VALID,-0.0169808,VALID,18.8361,VALID,15,VALID,0.0315972,
2009-07-24, 02:08:00,VALID,918.505,VALID,0,VALID,100,VALID,-0.0169808,VALID,18.8139,VALID,15,VALID,0,
2009-07-24, 02:09:00,VALID,918.498,VALID,0,VALID,100,VALID,0,VALID,18.7812,VALID,15,VALID,0,
2009-07-24, 02:10:00,VALID,918.499,VALID,0,VALID,100,VALID,0,VALID,18.7587,VALID,16,VALID,0.172602,
2009-07-24, 02:11:00,VALID,918.473,VALID,0,VALID,100,VALID,-0.0169808,VALID,18.7228,VALID,54,VALID,0.923651,
2009-07-24, 02:12:00,VALID,918.472,VALID,0,VALID,100,VALID,-0.0339617,VALID,18.7133,VALID,23,VALID,0.627257,
2009-07-24, 02:13:00,VALID,918.483,VALID,0,VALID,100,VALID,-0.0169808,VALID,18.7099,VALID,24,VALID,0.728819,
2009-07-24, 02:14:00,VALID,918.491,VALID,0,VALID,100,VALID,0,VALID,18.7166,VALID,30,VALID,0.663318,
2009-07-24, 02:15:00,VALID,918.503,VALID,0,VALID,100,VALID,-0.0339617,VALID,18.7133,VALID,48,VALID,0.705433,
2009-07-24, 02:16:00,VALID,918.526,VALID,0,VALID,100,VALID,-0.0169808,VALID,18.736,VALID,30,VALID,0.46548,
2009-07-24, 02:17:00,VALID,918.548,VALID,0,VALID,100,VALID,-0.0679233,VALID,18.7625,VALID,6,VALID,0.100229,
2009-07-24, 02:18:00,VALID,918.575,VALID,0,VALID,100,VALID,-0.0339617,VALID,18.7917,VALID,6,VALID,0,
2009-07-24, 02:19:00,VALID,918.575,VALID,0,VALID,99.9977,VALID,-0.0509425,VALID,18.8111,VALID,22,VALID,0,
2009-07-24, 02:20:00,VALID,918.589,VALID,0,VALID,99.9214,VALID,-0.0169808,VALID,18.8169,VALID,48,VALID,0.485137,
2009-07-24, 02:21:00,VALID,918.581,VALID,0,VALID,99.8222,VALID,-0.0339617,VALID,18.8595,VALID,58,VALID,0.618389,
2009-07-24, 02:22:00,VALID,918.58,VALID,0,VALID,99.6582,VALID,-0.0169808,VALID,18.8887,VALID,59,VALID,0.25109,
2009-07-24, 02:23:00,VALID,918.59,VALID,0,VALID,99.5031,VALID,-0.0169808,VALID,18.8815,VALID,16,VALID,0.32706,
2009-07-24, 02:24:00,VALID,918.594,VALID,0,VALID,99.4433,VALID,0,VALID,18.8593,VALID,7,VALID,0.39335,
2009-07-24, 02:25:00,VALID,918.571,VALID,0,VALID,99.5043,VALID,-0.0339617,VALID,18.8461,VALID,7,VALID,0.375,
2009-07-24, 02:26:00,VALID,918.579,VALID,0,VALID,99.498,VALID,0,VALID,18.8591,VALID,7,VALID,0.355923,
2009-07-24, 02:27:00,VALID,918.596,VALID,0,VALID,99.5259,VALID,-0.0169808,VALID,18.8818,VALID,7,VALID,0.351389,
2009-07-24, 02:28:00,VALID,918.606,VALID,0,VALID,99.4408,VALID,-0.0169808,VALID,18.898,VALID,7,VALID,0,
2009-07-24, 02:29:00,VALID,918.608,VALID,0,VALID,99.4051,VALID,-0.0169808,VALID,18.8982,VALID,7,VALID,0,
2009-07-24, 02:30:00,VALID,918.596,VALID,0,VALID,99.4166,VALID,-0.0509425,VALID,18.898,VALID,7,VALID,0,
2009-07-24, 02:31:00,VALID,918.598,VALID,0,VALID,99.2119,VALID,-0.0169808,VALID,18.9212,VALID,22,VALID,0,
2009-07-24, 02:32:00,VALID,918.62,VALID,0,VALID,98.9016,VALID,-0.0169808,VALID,18.8364,VALID,48,VALID,0.334604,
2009-07-24, 02:33:00,VALID,918.622,VALID,0,VALID,98.9792,VALID,-0.0339617,VALID,18.778,VALID,48,VALID,0.478981,
2009-07-24, 02:34:00,VALID,918.622,VALID,0,VALID,99.0504,VALID,0.0169808,VALID,18.7198,VALID,47,VALID,0.464648,
2009-07-24, 02:35:00,VALID,918.62,VALID,0,VALID,99.1724,VALID,0,VALID,18.622,VALID,27,VALID,0.962358,
2009-07-24, 02:36:00,VALID,918.627,VALID,0,VALID,99.9054,VALID,-0.0509425,VALID,18.6063,VALID,22,VALID,1.03516,
2009-07-24, 02:37:00,VALID,918.619,VALID,0,VALID,100,VALID,0,VALID,18.6649,VALID,21,VALID,1.21394,
2009-07-24, 02:38:00,VALID,918.619,VALID,0,VALID,99.9914,VALID,0.0339617,VALID,18.7483,VALID,22,VALID,1.28446,
2009-07-24, 02:39:00,VALID,918.635,VALID,0,VALID,99.7447,VALID,0,VALID,18.8201,VALID,23,VALID,1.35232,
2009-07-24, 02:40:00,VALID,918.656,VALID,0,VALID,99.4369,VALID,0.0339617,VALID,18.8785,VALID,30,VALID,1.24219,
2009-07-24, 02:41:00,VALID,918.647,VALID,0,VALID,99.1445,VALID,0,VALID,18.8915,VALID,33,VALID,0.951308,
2009-07-24, 02:42:00,VALID,918.631,VALID,0,VALID,99.0682,VALID,0,VALID,18.8496,VALID,37,VALID,0.942224,
2009-07-24, 02:43:00,VALID,918.606,VALID,0,VALID,99.2805,VALID,-0.0169808,VALID,18.8493,VALID,42,VALID,0.901953,
2009-07-24, 02:44:00,VALID,918.603,VALID,0,VALID,99.2309,VALID,-0.0169808,VALID,18.8623,VALID,42,VALID,0.961868,
2009-07-24, 02:45:00,VALID,918.592,VALID,0,VALID,99.1139,VALID,-0.0169808,VALID,18.8463,VALID,45,VALID,0.94436,
2009-07-24, 02:46:00,VALID,918.617,VALID,0,VALID,99.2564,VALID,0,VALID,18.7972,VALID,48,VALID,0.675987,
2009-07-24, 02:47:00,VALID,918.603,VALID,0,VALID,99.3225,VALID,-0.0169808,VALID,18.7652,VALID,48,VALID,0.407738,
2009-07-24, 02:48:00,VALID,918.603,VALID,0,VALID,99.4725,VALID,-0.0339617,VALID,18.7293,VALID,48,VALID,0.17351,
2009-07-24, 02:49:00,VALID,918.576,VALID,0,VALID,99.6162,VALID,0,VALID,18.7166,VALID,48,VALID,0,
2009-07-24, 02:50:00,VALID,918.544,VALID,0,VALID,99.7968,VALID,-0.0169808,VALID,18.7163,VALID,48,VALID,0.111914,
2009-07-24, 02:51:00,VALID,918.503,VALID,0,VALID,99.9692,VALID,0,VALID,18.739,VALID,48,VALID,0.0227582,
2009-07-24, 02:52:00,VALID,918.467,VALID,0,VALID,99.8248,VALID,0,VALID,18.7196,VALID,48,VALID,0,
2009-07-24, 02:53:00,VALID,918.436,VALID,0,VALID,99.8197,VALID,0,VALID,18.6739,VALID,48,VALID,0,
2009-07-24, 02:54:00,VALID,918.434,VALID,0,VALID,99.8807,VALID,0,VALID,18.622,VALID,48,VALID,0,
2009-07-24, 02:55:00,VALID,918.419,VALID,0,VALID,99.9657,VALID,0,VALID,18.5933,VALID,48,VALID,0.0474201,
2009-07-24, 02:56:00,VALID,918.401,VALID,0,VALID,100,VALID,0.0339617,VALID,18.5602,VALID,48,VALID,0.359012,
2009-07-24, 02:57:00,VALID,918.409,VALID,0,VALID,100,VALID,-0.0169808,VALID,18.5607,VALID,48,VALID,0.112995,
2009-07-24, 02:58:00,VALID,918.376,VALID,0,VALID,100,VALID,0,VALID,18.5671,VALID,48,VALID,0,
2009-07-24, 02:59:00,VALID,918.359,VALID,0,VALID,100,VALID,0,VALID,18.5637,VALID,48,VALID,0,
2009-07-24, 03:00:00,VALID,918.344,VALID,0,VALID,100,VALID,-0.0339617,VALID,18.5317,VALID,41,VALID,0.639063,
2009-07-24, 03:01:00,VALID,918.317,VALID,0,VALID,100,VALID,-0.0169808,VALID,18.5023,VALID,27,VALID,0.979367,
2009-07-24, 03:02:00,VALID,918.316,VALID,0,VALID,100,VALID,-0.0339617,VALID,18.515,VALID,16,VALID,1.27158,
2009-07-24, 03:03:00,VALID,918.302,VALID,0,VALID,100,VALID,-0.0169808,VALID,18.5347,VALID,17,VALID,1.25604,
2009-07-24, 03:04:00,VALID,918.298,VALID,0,VALID,100,VALID,0,VALID,18.5637,VALID,24,VALID,1.22741,
2009-07-24, 03:05:00,VALID,918.305,VALID,0,VALID,100,VALID,0,VALID,18.5896,VALID,23,VALID,0.981771,
2009-07-24, 03:06:00,VALID,918.284,VALID,0,VALID,100,VALID,0,VALID,18.6186,VALID,34,VALID,0.913477,
2009-07-24, 03:07:00,VALID,918.27,VALID,0,VALID,100,VALID,0.0169808,VALID,18.648,VALID,39,VALID,1.04539,
2009-07-24, 03:08:00,VALID,918.25,VALID,0,VALID,100,VALID,0,VALID,18.6482,VALID,38,VALID,1.14596,
2009-07-24, 03:09:00,VALID,918.243,VALID,0,VALID,100,VALID,0.0339617,VALID,18.6482,VALID,29,VALID,1.22205,
2009-07-24, 03:10:00,VALID,918.248,VALID,0,VALID,100,VALID,-0.0169808,VALID,18.6709,VALID,24,VALID,0.904948,
2009-07-24, 03:11:00,VALID,918.262,VALID,0,VALID,100,VALID,0,VALID,18.6904,VALID,29,VALID,0.674055,
2009-07-24, 03:12:00,VALID,918.262,VALID,0,VALID,100,VALID,0,VALID,18.6904,VALID,31,VALID,0.474657,
2009-07-24, 03:13:00,VALID,918.261,VALID,0,VALID,100,VALID,0,VALID,18.6772,VALID,31,VALID,0.1875,
2009-07-24, 03:14:00,VALID,918.265,VALID,0,VALID,100,VALID,0.0169808,VALID,18.6839,VALID,30,VALID,0.155061,
2009-07-24, 03:15:00,VALID,918.273,VALID,0,VALID,100,VALID,0.0169808,VALID,18.6899,VALID,30,VALID,0.0923295,
2009-07-24, 03:16:00,VALID,918.26,VALID,0,VALID,100,VALID,0.0339617,VALID,18.6869,VALID,24,VALID,0,
2009-07-24, 03:17:00,VALID,918.233,VALID,0,VALID,100,VALID,0,VALID,18.6677,VALID,24,VALID,0.501453,
2009-07-24, 03:18:00,VALID,918.199,VALID,0,VALID,100,VALID,0.0169808,VALID,18.6315,VALID,29,VALID,1.11007,
2009-07-24, 03:19:00,VALID,918.171,VALID,0,VALID,100,VALID,0.0169808,VALID,18.6061,VALID,26,VALID,1.35494,
2009-07-24, 03:20:00,VALID,918.16,VALID,0,VALID,100,VALID,0,VALID,18.5377,VALID,15,VALID,1.22729,
2009-07-24, 03:21:00,VALID,918.129,VALID,0,VALID,100,VALID,0,VALID,18.4731,VALID,21,VALID,1.4282,
2009-07-24, 03:22:00,VALID,918.101,VALID,0,VALID,100,VALID,0,VALID,18.4986,VALID,31,VALID,1.4237,
2009-07-24, 03:23:00,VALID,918.086,VALID,0,VALID,100,VALID,0.0169808,VALID,18.5764,VALID,33,VALID,1.26491,
2009-07-24, 03:24:00,VALID,918.088,VALID,0,VALID,100,VALID,-0.0169808,VALID,18.638,VALID,30,VALID,1.01672,
2009-07-24, 03:25:00,VALID,918.079,VALID,0,VALID,100,VALID,0.0339617,VALID,18.6869,VALID,36,VALID,0.495245,
2009-07-24, 03:26:00,VALID,918.07,VALID,0,VALID,100,VALID,0.0679233,VALID,18.6927,VALID,29,VALID,0.380996,
2009-07-24, 03:27:00,VALID,918.051,VALID,0,VALID,100,VALID,0,VALID,18.6804,VALID,29,VALID,0.143643,
2009-07-24, 03:28:00,VALID,918.01,VALID,0,VALID,100,VALID,0.0339617,VALID,18.654,VALID,29,VALID,0.480945,
2009-07-24, 03:29:00,VALID,917.98,VALID,0,VALID,100,VALID,0.0509425,VALID,18.6443,VALID,29,VALID,0.641006,
2009-07-24, 03:30:00,VALID,917.943,VALID,0,VALID,100,VALID,0.0169808,VALID,18.6216,VALID,31,VALID,1.04469,
2009-07-24, 03:31:00,VALID,917.924,VALID,0,VALID,100,VALID,0.0339617,VALID,18.6318,VALID,36,VALID,0.965402,
2009-07-24, 03:32:00,VALID,917.927,VALID,0,VALID,100,VALID,0.0169808,VALID,18.6255,VALID,29,VALID,0.649439,
2009-07-24, 03:33:00,VALID,917.947,VALID,0,VALID,100,VALID,0,VALID,18.6547,VALID,28,VALID,0.540879,
2009-07-24, 03:34:00,VALID,917.961,VALID,0,VALID,100,VALID,0.0169808,VALID,18.6807,VALID,28,VALID,0.499273,
2009-07-24, 03:35:00,VALID,917.968,VALID,0,VALID,100,VALID,0.0339617,VALID,18.7194,VALID,28,VALID,0.434593,
2009-07-24, 03:36:00,VALID,917.984,VALID,0,VALID,100,VALID,0.0169808,VALID,18.7583,VALID,28,VALID,0.335756,
2009-07-24, 03:37:00,VALID,918.002,VALID,0,VALID,100,VALID,0.0169808,VALID,18.7555,VALID,28,VALID,0.130766,
2009-07-24, 03:38:00,VALID,917.989,VALID,0,VALID,100,VALID,0.0339617,VALID,18.7421,VALID,28,VALID,0,
2009-07-24, 03:39:00,VALID,917.969,VALID,0,VALID,99.9944,VALID,0.0339617,VALID,18.7196,VALID,28,VALID,0,
2009-07-24, 03:40:00,VALID,917.96,VALID,0,VALID,100,VALID,0,VALID,18.6804,VALID,28,VALID,0,
2009-07-24, 03:41:00,VALID,917.947,VALID,0,VALID,100,VALID,-0.0169808,VALID,18.6612,VALID,28,VALID,0,
2009-07-24, 03:42:00,VALID,917.931,VALID,0,VALID,100,VALID,0.0169808,VALID,18.6353,VALID,28,VALID,0,
2009-07-24, 03:43:00,VALID,917.934,VALID,0,VALID,100,VALID,0.0169808,VALID,18.6253,VALID,28,VALID,0,